Weather History for Tillamook, OR

Change the Weather History Date:

Wednesday, March 27, 2013

  Actual Average (KMMV) Record (KMMV)
Temperature  
Mean Temperature 51 °F 48 °F  
Max Temperature 60 °F 58 °F 86 °F (1923)
Min Temperature 42 °F 38 °F 23 °F (1920)
Degree Days  
Heating Degree Days 14 17  
Month to date heating degree days 505  
Since 1 July heating degree days 3884  
Cooling Degree Days 0 0  
Month to date cooling degree days 0  
Year to date cooling degree days 0  
Growing Degree Days 1 (Base 50)    
Moisture  
Dew Point 47 °F    
Average Humidity 91    
Maximum Humidity 100    
Minimum Humidity 59    
Precipitation  
Precipitation 0.00 in 0.12 in 1.52 in (1936)
Month to date precipitation 3.56  
Year to date precipitation 14.10  
Sea Level Pressure  
Sea Level Pressure 29.95 in    
Wind  
Wind Speed 2 mph (WSW)    
Max Wind Speed 9 mph    
Max Gust Speed -    
Visibility 8 miles    
Events Rain    
T = Trace of Precipitation, MM = Missing Value Source: NWS Daily Summary

Daily Weather History Graph

Daily Weather History Graph

Search for Another Location

Airport:

Trip Planner

Search our weather history database for the weather conditions in past years. The results will help you decide how hot, cold, wet, or windy it might be!

Date:

Astronomy

Mar. 27, 2013 Rise Set
Actual Time 8:04 AM MDT 8:37 PM MDT
Civil Twilight 7:34 AM MDT 9:07 PM MDT
Nautical Twilight 6:59 AM MDT 9:42 PM MDT
Astronomical Twilight 6:23 AM MDT 10:18 PM MDT
Moon 9:32 PM MDT (3/27) 7:56 AM MDT (3/27)
Length of Visible Light 13h 32m
Length of Day
12h 33m
Full, 100% of the Moon is Illuminated
Mar 27
Full
Apr 2
Last Quarter
Apr 10
New
Apr 18
First Quarter
Apr 25
Full

Hourly Weather History & Observations

Time (MDT) Temp. Windchill Dew Point Humidity Pressure Visibility Wind Dir Wind Speed Gust Speed Precip Events Conditions
12:15 AM 48.2 °F - 48.2 °F 100% 29.98 in 7.0 mi Calm Calm - N/A   Overcast
12:35 AM 48.2 °F - 48.2 °F 100% 29.97 in 5.0 mi Calm Calm - N/A   Overcast
12:55 AM 48.2 °F - 48.2 °F 100% 29.97 in 4.0 mi Calm Calm - N/A   Overcast
1:15 AM 48.2 °F - 48.2 °F 100% 29.97 in 2.0 mi Calm Calm - N/A   Overcast
1:35 AM 48.2 °F - 48.2 °F 100% 29.97 in 2.0 mi Calm Calm - N/A   Overcast
1:55 AM 48.2 °F - 48.2 °F 100% 29.96 in 2.5 mi Calm Calm - N/A   Overcast
2:15 AM 46.4 °F 44.3 °F 46.4 °F 100% 29.96 in 1.8 mi SE 4.6 mph - N/A   Overcast
2:35 AM 46.4 °F - 46.4 °F 100% 29.96 in 3.0 mi Calm Calm - N/A   Overcast
2:55 AM 46.4 °F 45.2 °F 46.4 °F 100% 29.95 in 5.0 mi SSE 3.5 mph - N/A   Overcast
3:15 AM 46.4 °F 45.2 °F 46.4 °F 100% 29.95 in 5.0 mi SSE 3.5 mph - N/A   Mostly Cloudy
3:35 AM 44.6 °F 43.1 °F 44.6 °F 100% 29.94 in 5.0 mi SSE 3.5 mph - N/A   Scattered Clouds
3:55 AM 44.6 °F 43.1 °F 44.6 °F 100% 29.94 in 7.0 mi SE 3.5 mph - N/A   Clear
4:15 AM 44.6 °F 42.2 °F 44.6 °F 100% 29.93 in 7.0 mi SE 4.6 mph - N/A   Scattered Clouds
4:35 AM 42.8 °F - 42.8 °F 100% 29.93 in 3.0 mi Calm Calm - N/A   Mostly Cloudy
4:55 AM 42.8 °F - 42.8 °F 100% 29.93 in 4.0 mi Calm Calm - N/A   Overcast
5:15 AM 42.8 °F 41.1 °F 42.8 °F 100% 29.93 in 1.2 mi South 3.5 mph - N/A   Overcast
5:35 AM 42.8 °F 40.1 °F 42.8 °F 100% 29.93 in 5.0 mi SE 4.6 mph - N/A   Mostly Cloudy
5:55 AM 42.8 °F - 42.8 °F 100% 29.93 in 7.0 mi Calm Calm - N/A   Scattered Clouds
6:15 AM 42.8 °F - 42.8 °F 100% 29.93 in 7.0 mi Calm Calm - N/A   Clear
6:35 AM 42.8 °F - 42.8 °F 100% 29.92 in 7.0 mi Calm Calm - N/A   Clear
6:55 AM 42.8 °F - 42.8 °F 100% 29.93 in 5.0 mi Calm Calm - N/A   Scattered Clouds
7:15 AM 42.8 °F - 42.8 °F 100% 29.93 in 7.0 mi Calm Calm - N/A   Overcast
7:35 AM 42.8 °F - 42.8 °F 100% 29.93 in 10.0 mi Calm Calm - N/A   Mostly Cloudy
7:55 AM 42.8 °F - 42.8 °F 100% 29.93 in 10.0 mi Calm Calm - N/A   Mostly Cloudy
8:15 AM 42.8 °F - 42.8 °F 100% 29.93 in 7.0 mi Calm Calm - N/A   Mostly Cloudy
8:35 AM 42.8 °F - 42.8 °F 100% 29.93 in 7.0 mi Calm Calm - N/A   Overcast
8:55 AM 42.8 °F - 42.8 °F 100% 29.93 in 7.0 mi Calm Calm - N/A   Overcast
9:15 AM 44.6 °F - 44.6 °F 100% 29.93 in 10.0 mi Calm Calm - N/A   Overcast
9:35 AM 44.6 °F - 44.6 °F 100% 29.93 in 10.0 mi Calm Calm - N/A   Overcast
9:55 AM 46.4 °F - 46.4 °F 100% 29.93 in 10.0 mi Calm Calm - N/A   Overcast
10:15 AM 46.4 °F - 46.4 °F 100% 29.93 in 10.0 mi Calm Calm - N/A   Overcast
10:35 AM 48.2 °F - 48.2 °F 100% 29.93 in 10.0 mi Calm Calm - N/A   Overcast
10:55 AM 50.0 °F - 50.0 °F 100% 29.93 in 10.0 mi Calm Calm - N/A   Mostly Cloudy
11:15 AM 50.0 °F - 50.0 °F 100% 29.93 in 10.0 mi Calm Calm - N/A   Overcast
11:35 AM 51.8 °F - 51.8 °F 100% 29.93 in 10.0 mi Calm Calm - N/A Rain Light Rain
11:55 AM 51.8 °F - 50.0 °F 94% 29.93 in 10.0 mi Calm Calm - N/A Rain Light Rain
12:15 PM 53.6 °F - 51.8 °F 94% 29.93 in 10.0 mi Calm Calm - N/A   Overcast
12:35 PM 55.4 °F - 48.2 °F 77% 29.93 in 10.0 mi Calm Calm - N/A   Overcast
12:55 PM 57.2 °F - 48.2 °F 72% 29.93 in 10.0 mi Calm Calm - N/A   Overcast
1:15 PM 59.0 °F - 46.4 °F 63% 29.93 in 10.0 mi Calm Calm - N/A   Mostly Cloudy
1:35 PM 59.0 °F - 46.4 °F 63% 29.93 in 10.0 mi Calm Calm - N/A   Mostly Cloudy
1:55 PM 59.0 °F - 46.4 °F 63% 29.93 in 10.0 mi NNW 3.5 mph - N/A   Overcast
2:15 PM 60.8 °F - 46.4 °F 59% 29.93 in 10.0 mi Calm Calm - N/A   Overcast
2:35 PM 60.8 °F - 48.2 °F 63% 29.93 in 10.0 mi West 6.9 mph - N/A   Overcast
2:55 PM 60.8 °F - 48.2 °F 63% 29.93 in 10.0 mi WNW 9.2 mph - N/A   Mostly Cloudy
3:15 PM 59.0 °F - 48.2 °F 67% 29.93 in 10.0 mi WSW 6.9 mph - N/A   Mostly Cloudy
3:35 PM 57.2 °F - 48.2 °F 72% 29.93 in 10.0 mi West 9.2 mph - N/A   Overcast
3:55 PM 57.2 °F - 48.2 °F 72% 29.93 in 10.0 mi WSW 8.1 mph - N/A   Overcast
4:15 PM 57.2 °F - 48.2 °F 72% 29.94 in 10.0 mi WSW 8.1 mph - N/A   Overcast
4:35 PM 59.0 °F - 48.2 °F 67% 29.94 in 10.0 mi West 6.9 mph - N/A   Overcast
4:55 PM 57.2 °F - 48.2 °F 72% 29.94 in 10.0 mi West 9.2 mph - N/A   Overcast
5:15 PM 55.4 °F - 48.2 °F 77% 29.95 in 10.0 mi West 9.2 mph - N/A   Overcast
5:35 PM 55.4 °F - 48.2 °F 77% 29.95 in 10.0 mi West 6.9 mph - N/A   Overcast
5:55 PM 53.6 °F - 48.2 °F 82% 29.96 in 10.0 mi West 8.1 mph - N/A   Overcast
6:15 PM 53.6 °F - 48.2 °F 82% 29.96 in 10.0 mi West 5.8 mph - N/A   Overcast
6:35 PM 53.6 °F - 48.2 °F 82% 29.96 in 10.0 mi West 5.8 mph - N/A   Overcast
6:55 PM 53.6 °F - 48.2 °F 82% 29.96 in 10.0 mi West 4.6 mph - N/A Rain Light Rain
7:15 PM 53.6 °F - 48.2 °F 82% 29.96 in 10.0 mi Calm Calm - N/A Rain Light Rain
7:35 PM 51.8 °F - 48.2 °F 88% 29.96 in 3.0 mi WSW 3.5 mph - N/A   Drizzle
7:55 PM 51.8 °F - 48.2 °F 88% 29.97 in 10.0 mi Calm Calm - N/A   Overcast
8:15 PM 51.8 °F - 50.0 °F 94% 29.97 in 10.0 mi Calm Calm - N/A   Overcast
8:35 PM 51.8 °F - 48.2 °F 88% 29.97 in 10.0 mi Calm Calm - N/A   Overcast
8:55 PM 51.8 °F - 50.0 °F 94% 29.97 in 7.0 mi Calm Calm - N/A   Overcast
9:15 PM 51.8 °F - 50.0 °F 94% 29.97 in 10.0 mi Calm Calm - N/A   Overcast
9:35 PM 51.8 °F - 50.0 °F 94% 29.97 in 10.0 mi NNE 3.5 mph - N/A   Overcast
9:55 PM 51.8 °F - 50.0 °F 94% 29.98 in 10.0 mi Calm Calm - N/A   Overcast
10:15 PM 50.0 °F - 50.0 °F 100% 29.98 in 7.0 mi Calm Calm - N/A   Mostly Cloudy
10:35 PM 50.0 °F - 50.0 °F 100% 29.99 in 7.0 mi Calm Calm - N/A   Overcast
10:55 PM 50.0 °F - 50.0 °F 100% 29.99 in 7.0 mi Calm Calm - N/A   Overcast
11:15 PM 50.0 °F - 50.0 °F 100% 29.99 in 7.0 mi Calm Calm - N/A   Overcast
11:35 PM 48.2 °F - 48.2 °F 100% 30.00 in 7.0 mi Calm Calm - N/A   Overcast
11:55 PM 48.2 °F - 48.2 °F 100% 30.00 in 7.0 mi Calm Calm - N/A   Overcast